FW9604 Weather Reports


time (UTC)temp
C
wind
direction
speed
KPH
gust
KPH
rain 1hr
cm
rain 24hr
cm
rain mn
cm
humidity
%
barometer
mb
20260505124531 13 360 4.8 16.1 0.00 0.00 0.00 71 1015.4
20260505123030 14 5 4.8 16.1 0.00 0.00 0.00 73 1015.4
20260505121531 14 76 4.8 17.7 0.00 0.00 0.00 71 1015.3
20260505120030 15 102 3.2 12.9 0.00 0.00 0.00 73 1015.4
20260505114537 14 300 3.2 20.9 0.00 0.00 0.00 75 1015.4
20260505113029 13 316 4.8 16.1 0.00 0.00 0.00 74 1015.4
20260505111533 13 351 4.8 14.5 0.00 0.00 0.00 75 1015.5
20260505100041 14 280 6.4 14.5 0.00 0.00 0.00 73 1015.5
20260505094531 14 63 3.2 12.9 0.00 0.00 0.00 75 1015.5
20260505093033 14 164 3.2 12.9 0.00 0.00 0.00 76 1015.5
20260505091527 13 286 3.2 12.9 0.00 0.00 0.00 76 1015.7
20260505090048 13 330 3.2 14.5 0.00 0.00 0.00 77 1015.6
20260505084536 13 327 3.2 16.1 0.00 0.00 0.00 78 1015.6
20260505083040 13 326 4.8 12.9 0.00 0.00 0.00 77 1015.6
20260505081548 13 121 4.8 17.7 0.00 0.00 0.00 77 1015.7
20260505080038 13 310 3.2 12.9 0.00 0.00 0.00 78 1015.5
20260505074527 13 344 3.2 12.9 0.00 0.00 0.00 79 1015.5
20260505073030 12 355 3.2 9.7 0.00 0.00 0.00 80 1015.5
20260505071531 12 292 1.6 11.3 0.00 0.00 0.00 81 1015.6
20260505070031 11 323 1.6 12.9 0.00 0.00 0.00 82 1015.5
20260505064527 11 261 3.2 16.1 0.00 0.00 0.00 83 1015.5
20260505063035 11 352 3.2 12.9 0.00 0.00 0.00 84 1015.6
20260505061538 10 257 3.2 14.5 0.00 0.00 0.00 84 1015.4
20260505060028 10 321 3.2 12.9 0.00 0.00 0.00 85 1015.4
20260505054530 10 333 3.2 14.5 0.00 0.00 0.00 85 1015.4
20260505053030 10 346 4.8 16.1 0.00 0.00 0.00 86 1015.4
20260505051530 10 304 3.2 14.5 0.00 0.00 0.00 87 1015.2
20260505041530 10 9 4.8 17.7 0.00 0.00 0.00 88 1015.1
20260505040029 10 265 4.8 12.9 0.00 0.00 0.00 87 1015.1
20260505034529 10 311 3.2 12.9 0.00 0.00 0.00 87 1015.1
20260505033035 10 0 4.8 12.9 0.00 0.00 0.00 86 1015.1
20260505031530 10 309 4.8 14.5 0.00 0.00 0.00 86 1015.2
20260505030028 11 290 4.8 16.1 0.00 0.00 0.00 85 1015.1
20260505024550 11 254 1.6 12.9 0.00 0.00 0.00 85 1015.0
20260505023038 11 308 4.8 16.1 0.00 0.00 0.00 85 1014.9
20260505021544 11 311 3.2 9.7 0.00 0.00 0.00 85 1014.8
20260505020030 11 227 1.6 19.3 0.00 0.00 0.00 85 1014.7
20260505014530 11 349 3.2 12.9 0.00 0.00 0.00 86 1015.0
20260505013029 11 13 3.2 14.5 0.00 0.00 0.00 87 1015.2
20260505011544 11 341 4.8 12.9 0.00 0.00 0.00 87 1015.3
20260505010030 11 327 3.2 12.9 0.00 0.00 0.00 87 1015.3
20260505004537 10 345 3.2 11.3 0.00 0.00 0.00 87 1015.5
20260505003028 10 14 3.2 12.9 0.00 0.00 0.00 86 1015.5
20260505001531 11 306 1.6 6.4 0.00 0.00 0.00 86 1015.5
20260505000032 11 303 3.2 8.0 0.00 0.00 0.00 86 1015.6
20260504234528 11 324 3.2 14.5 0.00 0.00 0.00 86 1015.6
20260504233028 11 291 1.6 8.0 0.00 0.00 0.00 86 1015.6
20260504231528 11 341 1.6 12.9 0.00 0.00 0.00 86 1015.6
20260504230028 11 316 3.2 12.9 0.00 0.00 0.00 86 1015.6
20260504224527 10 265 4.8 12.9 0.00 0.00 0.00 86 1015.7
20260504223034 10 0 1.6 11.3 0.00 0.00 0.00 87 1015.8
20260504221536 11 329 1.6 9.7 0.00 0.00 0.00 87 1015.8
20260504220030 10 327 0.0 9.7 0.00 0.00 0.00 87 1015.9
20260504214528 10 289 3.2 9.7 0.00 0.00 0.00 87 1015.9
20260504213027 11 17 3.2 8.0 0.00 0.00 0.00 87 1016.1
20260504211528 11 328 1.6 11.3 0.00 0.00 0.00 87 1016.1
20260504210030 11 5 1.6 8.0 0.00 0.00 0.00 87 1016.1
20260504204536 11 319 1.6 8.0 0.00 0.00 0.00 87 1016.1
20260504203032 10 306 1.6 8.0 0.00 0.00 0.00 87 1015.9
20260504201527 10 300 1.6 12.9 0.00 0.00 0.00 86 1015.8
20260504200029 10 319 3.2 12.9 0.00 0.00 0.00 86 1015.7
20260504194536 10 309 3.2 9.7 0.00 0.00 0.00 86 1015.6
20260504193028 10 306 3.2 9.7 0.00 0.00 0.00 85 1015.6
20260504191527 10 311 3.2 6.4 0.00 0.00 0.00 84 1015.4
20260504190035 10 286 3.2 9.7 0.00 0.00 0.00 84 1015.3
20260504184535 11 276 1.6 8.0 0.00 0.00 0.00 83 1015.4
20260504183032 11 322 3.2 12.9 0.00 0.00 0.00 82 1015.4
20260504181530 11 5 3.2 11.3 0.00 0.00 0.00 83 1015.4
20260504180028 12 330 3.2 12.9 0.00 0.00 0.00 83 1015.3
20260504174530 12 323 1.6 9.7 0.00 0.00 0.00 83 1015.4
20260504173029 12 24 3.2 14.5 0.00 0.00 0.00 83 1015.3
20260504171531 12 314 3.2 12.9 0.00 0.00 0.00 83 1015.4